[[{"header":{"parameterUnit":"m.s-1","parameterCategory":1,"la1":30.2991,"la2":30.254,"lo1":-89.0895,"lo2":-89.0444,"dy":0.0017,"dx":0.0017,"nx":28,"ny":28,"refTime":"2024-08-21T09:00:00:Z","depth":0,"parameterNumber":2,"parameterNumberName":"U-component_of_WINDS"},"data":[0,0,0,0,0,0,0,0,0,0,0,0,0,0,0,0,0,0,0,0,0,0,0,0,0,0,0,0,0,0,0,0,0,0,0,0,0,0,0,0,0,0,0,0,0,0,0,0,0,0,0,0,0,0,0,0,0,0,-1.3455,-1.3455,0,-1.3468,-1.3468,-1.3468,-1.3421,-1.342,-1.3418,-1.3417,-1.3432,-1.3434,-1.3435,0,0,0,0,0,0,0,0,0,0,0,0,0,-1.3392,-1.3393,-1.3455,-1.3455,-1.3456,-1.3468,-1.3468,-1.3468,-1.3421,-1.342,-1.3418,-1.3416,-1.3431,-1.3433,-1.3435,0,0,0,0,0,0,0,0,0,0,0,0,0,-1.3414,-1.3394,-1.3455,-1.3434,-1.3432,-1.3468,-1.3468,-1.3468,-1.3422,-1.342,-1.3418,-1.3416,-1.3431,-1.3433,-1.3436,-1.3494,0,0,-1.3444,-1.3445,0,0,0,0,0,0,0,0,-1.3412,-1.3416,-1.3437,-1.3435,-1.3433,-1.3441,-1.3451,-1.3477,-1.3422,-1.3426,-1.3417,-1.3415,-1.3437,-1.3439,-1.3446,-1.3495,-1.3495,-1.3444,-1.3445,-1.3447,-1.3447,0,0,0,0,0,0,0,-1.3411,-1.3415,-1.346,-1.3437,-1.3435,-1.3424,-1.3425,-1.3456,-1.3443,-1.3425,-1.3422,-1.3424,-1.3435,-1.3443,-1.3446,-1.3496,-1.3444,-1.3446,-1.3448,-1.3449,-1.3594,-1.3596,0,0,0,0,0,0,-1.3412,-1.3414,-1.346,-1.3461,-1.3417,-1.3427,-1.3428,-1.3441,-1.3442,-1.3441,-1.3426,-1.3422,-1.344,-1.3443,-1.3446,-1.3515,-1.3446,-1.3449,-1.345,-1.3592,-1.3594,-1.3597,0,0,0,0,0,0,-1.3411,-1.3417,-1.3459,-1.3437,-1.3441,-1.343,-1.3445,-1.3442,-1.345,-1.3443,-1.344,-1.3436,-1.3439,-1.3443,-1.3483,-1.3515,-1.345,-1.3452,-1.3589,-1.3592,-1.3596,-1.3654,0,0,0,0,0,0,-1.3409,-1.3416,-1.3438,-1.3437,-1.3443,-1.3495,-1.3447,-1.3444,-1.3454,-1.3449,-1.3452,-1.3451,-1.3437,-1.3479,-1.3485,-1.3518,-1.3454,-1.3586,-1.359,-1.3595,-1.3649,-1.3659,-1.3667,0,0,0,0,0,-1.3407,-1.3454,-1.3439,-1.3445,-1.3469,-1.3497,-1.35,-1.3483,-1.3457,-1.3479,-1.3475,-1.345,-1.351,-1.3483,-1.349,-1.3524,-1.3584,-1.3589,-1.3594,-1.3645,-1.3657,-1.3667,0,0,0,0,0,0,-1.3459,-1.3454,-1.3437,-1.3485,-1.3492,-1.3489,-1.3516,-1.3497,-1.3512,-1.3506,-1.3485,-1.3486,-1.353,-1.3531,-1.3501,-1.3581,-1.3543,-1.3549,-1.3579,-1.359,-1.3599,-1.3599,-1.3457,0,0,0,0,0,-1.3476,-1.3499,-1.3493,-1.3536,-1.354,-1.3528,-1.3539,-1.3526,-1.3532,-1.3535,-1.3533,-1.3541,-1.3562,-1.3576,-1.3594,-1.3648,-1.3649,-1.3675,-1.3684,-1.3692,-1.3698,-1.3728,-1.374,-1.3614,-1.3614,-1.3614,0,0,-1.3512,-1.3511,-1.3527,-1.3546,-1.355,-1.3575,-1.3531,-1.3558,-1.3577,-1.3539,-1.3577,-1.3576,-1.3584,-1.3631,-1.3652,-1.3633,-1.3733,-1.3698,-1.3704,-1.3707,-1.3735,-1.3746,-1.3757,-1.3618,-1.3617,-1.3616,0,0,-1.3589,-1.3591,-1.3627,-1.3632,-1.3638,-1.363,-1.3638,-1.3639,-1.3637,-1.3674,-1.3647,-1.3669,-1.3704,-1.3711,-1.3719,-1.3799,-1.3778,-1.3806,-1.3855,-1.3884,-1.3894,-1.3902,-1.3932,-1.3943,-1.3812,-1.3812,-1.3812,0,-1.3633,-1.3669,-1.3649,-1.3679,-1.3688,-1.3655,-1.3692,-1.3698,-1.371,-1.3718,-1.3696,-1.374,-1.3743,-1.3792,-1.3812,-1.3819,-1.3829,-1.3806,-1.3894,-1.3902,-1.391,-1.3939,-1.395,-1.3816,-1.3815,-1.3815,-1.3815,0,-1.3723,-1.3748,-1.3777,-1.3789,-1.3802,-1.3835,-1.3821,-1.3836,-1.3822,-1.3816,-1.3855,-1.3857,-1.3876,-1.3886,-1.3872,-1.3934,-1.3922,-1.3897,-1.3859,-1.3926,-1.3952,-1.3963,-1.3821,-1.3819,-1.3818,-1.3818,0,0,-1.3834,-1.3835,-1.3846,-1.3852,-1.3856,-1.3875,-1.3908,-1.3925,-1.394,-1.3949,-1.3976,-1.4007,-1.3985,-1.3994,-1.398,-1.4006,-1.4071,-1.3978,-1.3978,-1.3997,-1.4141,-1.416,-1.4173,-1.4057,-1.4058,-1.406,-1.414,0,-1.3912,-1.3966,-1.395,-1.4005,-1.4029,-1.3998,-1.4026,-1.4032,-1.4027,-1.4047,-1.4042,-1.4065,-1.4033,-1.4038,-1.4062,-1.4058,-1.41,-1.4052,-1.4083,-1.4084,-1.4083,-1.4186,-1.4207,-1.4283,-1.415,-1.4152,-1.4153,0,-1.4009,-1.4022,-1.4081,-1.4081,-1.4091,-1.4116,-1.4132,-1.4151,-1.4157,-1.4152,-1.4163,-1.4144,-1.4176,-1.4137,-1.4182,-1.415,-1.4161,-1.4162,-1.4164,-1.4167,-1.4124,-1.4194,-1.4306,-1.4318,-1.4169,-1.4168,-1.4167,0,-1.4087,-1.4119,-1.4158,-1.4163,-1.4165,-1.4184,-1.4186,-1.419,-1.4202,-1.4216,-1.4223,-1.4241,-1.4251,-1.4265,-1.4251,-1.4224,-1.4299,-1.4258,-1.4297,-1.4297,-1.4315,-1.4315,-1.4433,-1.4321,-1.4321,-1.432,-1.432,0,-1.4175,-1.4213,-1.4193,-1.4217,-1.4258,-1.4238,-1.4279,-1.4277,-1.4282,-1.4305,-1.4279,-1.4302,-1.4283,-1.4304,-1.4294,-1.4334,-1.4338,-1.4336,-1.4333,-1.4339,-1.4339,-1.4347,-1.4342,-1.4323,-1.4323,-1.4322,-1.4322,0,-1.4269,-1.4257,-1.4298,-1.4296,-1.4296,-1.4327,-1.4326,-1.4348,-1.4342,-1.4372,-1.4378,-1.4368,-1.4392,-1.438,-1.4405,-1.4398,-1.445,-1.4439,-1.4448,-1.4446,-1.4485,-1.4482,-1.4614,-1.463,-1.4507,-1.4508,-1.4509,0,-1.4327,-1.4355,-1.4356,-1.437,-1.4374,-1.4396,-1.4408,-1.439,-1.4404,-1.4414,-1.4436,-1.4457,-1.4474,-1.4514,-1.451,-1.4529,-1.4519,-1.4564,-1.4522,-1.4528,-1.4522,-1.4521,-1.4524,-1.4573,-1.4574,-1.4575,-1.4576,0,-1.4432,-1.4425,-1.4443,-1.446,-1.4475,-1.4487,-1.4497,-1.451,-1.4492,-1.4509,-1.4533,-1.4546,-1.4572,-1.4594,-1.4611,-1.4613,-1.4593,-1.4589,-1.46,-1.4607,-1.4611,-1.4611,-1.4472,-1.4587,-1.4586,-1.4585,-1.4584,-1.4584,-1.4511,-1.4535,-1.4539,-1.4561,-1.4566,-1.4576,-1.4598,-1.4594,-1.4613,-1.4633,-1.462,-1.4649,-1.4656,-1.4676,-1.4681,-1.4704,-1.4686,-1.4701,-1.4705,-1.4709,-1.4715,-1.4606,-1.4707,-1.4706,-1.4706,-1.4706,-1.4706,0,-1.4616,-1.4617,-1.4637,-1.4652,-1.4669,-1.4647,-1.4657,-1.4673,-1.4698,-1.4706,-1.4722,-1.4751,-1.4772,-1.4769,-1.4789,-1.4808,-1.4799,-1.4814,-1.4813,-1.4814,-1.4729,-1.4719,-1.4821,-1.4821,-1.4821,-1.4821,-1.4821,-1.4821,-1.4672,-1.4711,-1.4705,-1.4747,-1.4748,-1.4775,-1.4783,-1.4793,-1.4799,-1.4831,-1.4849,-1.4847,-1.485,-1.487,-1.4889,-1.4888,-1.4897,-1.4916,-1.4911,-1.4832,-1.482,-1.4809,-1.48,-1.4918,-1.4918,-1.4995,-1.4996,-1.4996]},{"header":{"parameterUnit":"m.s-1","parameterCategory":1,"la1":30.2991,"la2":30.254,"lo1":-89.0895,"lo2":-89.0444,"dy":0.0017,"dx":0.0017,"nx":28,"ny":28,"refTime":"2024-08-21T09:00:00:Z","depth":0,"parameterNumber":3,"parameterNumberName":"V-component_of_WINDS"},"data":[0,0,0,0,0,0,0,0,0,0,0,0,0,0,0,0,0,0,0,0,0,0,0,0,0,0,0,0,0,0,0,0,0,0,0,0,0,0,0,0,0,0,0,0,0,0,0,0,0,0,0,0,0,0,0,0,0,0,-2.6422,-2.6421,0,-2.6399,-2.6398,-2.6398,-2.6336,-2.6335,-2.6333,-2.6332,-2.631,-2.6311,-2.6312,0,0,0,0,0,0,0,0,0,0,0,0,0,-2.6414,-2.6414,-2.6422,-2.6421,-2.6421,-2.6399,-2.6398,-2.6398,-2.6336,-2.6335,-2.6333,-2.6332,-2.631,-2.6311,-2.6312,0,0,0,0,0,0,0,0,0,0,0,0,0,-2.6407,-2.6414,-2.6422,-2.6387,-2.6384,-2.6399,-2.6398,-2.6398,-2.6337,-2.6335,-2.6333,-2.6331,-2.631,-2.6311,-2.6312,-2.6358,0,0,-2.6315,-2.6315,0,0,0,0,0,0,0,0,-2.6407,-2.6407,-2.6393,-2.639,-2.6386,-2.6368,-2.6388,-2.6385,-2.6337,-2.6355,-2.6332,-2.633,-2.6331,-2.6331,-2.6331,-2.6357,-2.6356,-2.6315,-2.6316,-2.6316,-2.6316,0,0,0,0,0,0,0,-2.6408,-2.6408,-2.6412,-2.6393,-2.6389,-2.6374,-2.6371,-2.6387,-2.6355,-2.6353,-2.6348,-2.6347,-2.6329,-2.633,-2.633,-2.6356,-2.6315,-2.6316,-2.6317,-2.6317,-2.6421,-2.6423,0,0,0,0,0,0,-2.6413,-2.6408,-2.6413,-2.6412,-2.6392,-2.6376,-2.6372,-2.6376,-2.6354,-2.6349,-2.6348,-2.6344,-2.6329,-2.6329,-2.6329,-2.6382,-2.6316,-2.6317,-2.6318,-2.6419,-2.6421,-2.6424,0,0,0,0,0,0,-2.6413,-2.6414,-2.6414,-2.6409,-2.6408,-2.6378,-2.6383,-2.6377,-2.6377,-2.6351,-2.6345,-2.6355,-2.6328,-2.6327,-2.6352,-2.6381,-2.6318,-2.6319,-2.6416,-2.6419,-2.6422,-2.649,0,0,0,0,0,0,-2.6413,-2.6414,-2.6431,-2.641,-2.6408,-2.6437,-2.6385,-2.6378,-2.6379,-2.6373,-2.6355,-2.635,-2.6326,-2.635,-2.6353,-2.6381,-2.6319,-2.6413,-2.6418,-2.6421,-2.6485,-2.6495,-2.6503,0,0,0,0,0,-2.6413,-2.6451,-2.6432,-2.6433,-2.6429,-2.6439,-2.6438,-2.6409,-2.6381,-2.6398,-2.6382,-2.6351,-2.6377,-2.6353,-2.6355,-2.6384,-2.6411,-2.6416,-2.6421,-2.6481,-2.6493,-2.6503,0,0,0,0,0,0,-2.6477,-2.6448,-2.6426,-2.6459,-2.6452,-2.6428,-2.6449,-2.6422,-2.6423,-2.6418,-2.6382,-2.6378,-2.6408,-2.6398,-2.6373,-2.6429,-2.6389,-2.6395,-2.6434,-2.6445,-2.6454,-2.6456,-2.632,0,0,0,0,0,-2.6495,-2.6505,-2.6479,-2.651,-2.6507,-2.6479,-2.6482,-2.646,-2.6452,-2.6449,-2.6433,-2.6427,-2.6434,-2.6439,-2.6443,-2.6483,-2.6479,-2.6504,-2.6513,-2.6521,-2.6526,-2.6548,-2.6559,-2.644,-2.6439,-2.6439,0,0,-2.6532,-2.6517,-2.6526,-2.6523,-2.6514,-2.6527,-2.6477,-2.6491,-2.65,-2.6451,-2.6473,-2.6462,-2.6452,-2.6484,-2.6498,-2.6478,-2.6558,-2.6527,-2.6534,-2.6535,-2.6554,-2.6565,-2.6575,-2.6443,-2.6442,-2.6442,0,0,-2.6606,-2.6595,-2.662,-2.6613,-2.6602,-2.6582,-2.6589,-2.6569,-2.656,-2.6581,-2.6545,-2.6555,-2.6567,-2.6562,-2.6561,-2.6634,-2.6606,-2.6636,-2.6685,-2.6706,-2.6716,-2.6724,-2.6751,-2.6761,-2.6642,-2.6642,-2.6642,0,-2.6654,-2.667,-2.6637,-2.6654,-2.6654,-2.6609,-2.6635,-2.663,-2.6621,-2.6622,-2.6599,-2.6614,-2.6604,-2.6635,-2.6653,-2.6654,-2.666,-2.6638,-2.6717,-2.6725,-2.6732,-2.6757,-2.6767,-2.6646,-2.6645,-2.6645,-2.6644,0,-2.6729,-2.6741,-2.6763,-2.6755,-2.6757,-2.6779,-2.675,-2.6756,-2.6734,-2.6718,-2.6741,-2.6728,-2.6729,-2.6735,-2.6714,-2.6763,-2.6751,-2.6723,-2.6683,-2.6748,-2.6771,-2.678,-2.6651,-2.665,-2.6649,-2.6648,0,0,-2.6843,-2.6817,-2.6825,-2.6821,-2.6805,-2.6814,-2.6834,-2.6835,-2.6842,-2.6837,-2.6854,-2.6865,-2.6839,-2.6838,-2.6816,-2.6834,-2.6894,-2.6804,-2.6803,-2.6822,-2.6949,-2.697,-2.6982,-2.6875,-2.6877,-2.6878,-2.695,0,-2.6913,-2.6945,-2.6916,-2.6954,-2.6965,-2.6923,-2.694,-2.6933,-2.6918,-2.6926,-2.691,-2.6919,-2.6884,-2.6883,-2.6899,-2.6883,-2.6919,-2.6878,-2.6891,-2.6892,-2.6895,-2.6994,-2.7017,-2.7085,-2.6959,-2.696,-2.6961,0,-2.6999,-2.6998,-2.7037,-2.7019,-2.7023,-2.7039,-2.7038,-2.7045,-2.7037,-2.7025,-2.7024,-2.6997,-2.7016,-2.6976,-2.7002,-2.6975,-2.6979,-2.6972,-2.6974,-2.6974,-2.6931,-2.6998,-2.7106,-2.7116,-2.6975,-2.6974,-2.6973,0,-2.7079,-2.7088,-2.7112,-2.711,-2.709,-2.7102,-2.7094,-2.7083,-2.7086,-2.7086,-2.7087,-2.7089,-2.709,-2.7093,-2.7067,-2.7041,-2.7097,-2.7055,-2.7089,-2.709,-2.7103,-2.7103,-2.7214,-2.7105,-2.7104,-2.7104,-2.7104,0,-2.7161,-2.7187,-2.7148,-2.7163,-2.719,-2.7158,-2.7186,-2.7174,-2.7165,-2.7177,-2.7141,-2.7154,-2.7119,-2.7129,-2.7109,-2.7134,-2.7135,-2.7127,-2.7121,-2.713,-2.7131,-2.7132,-2.7127,-2.7107,-2.7106,-2.7106,-2.7105,0,-2.7255,-2.723,-2.7254,-2.7233,-2.7228,-2.725,-2.7232,-2.7245,-2.7228,-2.7245,-2.7247,-2.7221,-2.723,-2.7205,-2.721,-2.7197,-2.7233,-2.722,-2.7236,-2.7233,-2.7268,-2.7265,-2.7384,-2.7398,-2.728,-2.7281,-2.7282,0,-2.7309,-2.7328,-2.7309,-2.7314,-2.7309,-2.7318,-2.7321,-2.7289,-2.7294,-2.7286,-2.73,-2.7307,-2.731,-2.7327,-2.7309,-2.7313,-2.73,-2.7341,-2.73,-2.7309,-2.7301,-2.7301,-2.7303,-2.735,-2.7351,-2.7352,-2.7353,0,-2.7408,-2.7395,-2.74,-2.7401,-2.7405,-2.7404,-2.7401,-2.7408,-2.7375,-2.7382,-2.739,-2.7393,-2.7398,-2.7405,-2.7406,-2.7398,-2.7371,-2.7366,-2.7374,-2.7384,-2.7393,-2.739,-2.726,-2.7364,-2.7363,-2.7362,-2.7362,-2.7361,-2.7484,-2.7499,-2.7488,-2.7495,-2.749,-2.7488,-2.75,-2.7484,-2.7491,-2.7493,-2.7474,-2.7487,-2.7478,-2.7476,-2.7471,-2.7482,-2.7463,-2.7474,-2.7477,-2.7481,-2.7487,-2.7391,-2.7482,-2.7481,-2.7481,-2.7481,-2.748,0,-2.7582,-2.7573,-2.758,-2.7577,-2.7582,-2.7555,-2.7551,-2.7557,-2.7569,-2.7563,-2.7567,-2.7578,-2.7585,-2.7567,-2.7571,-2.7583,-2.7571,-2.7585,-2.7585,-2.7584,-2.7503,-2.7496,-2.7595,-2.7595,-2.7595,-2.7595,-2.7595,-2.7595,-2.7634,-2.7658,-2.7644,-2.7665,-2.7655,-2.7668,-2.7668,-2.7666,-2.7661,-2.7674,-2.768,-2.7668,-2.7658,-2.7661,-2.7666,-2.7661,-2.7665,-2.7684,-2.7675,-2.76,-2.7589,-2.7578,-2.7572,-2.7685,-2.7685,-2.7754,-2.7755,-2.7755]}]]